The Dalles, WA

4:47 PM PDT on July 27, 2017 (GMT -0700)
Columbia Gorge Regional-The Dalles

Weather History for KDLS - November, 2013

Change the Weather History Date:

Saturday, November 9, 2013

  Actual Average Record
Temperature  
Mean Temperature 44 °F -  
Max Temperature 50 °F 53 °F 69 °F (2016)
Min Temperature 37 °F 37 °F 19 °F (1952)
Degree Days  
Heating Degree Days 22    
Moisture  
Dew Point 39 °F    
Average Humidity 84    
Maximum Humidity 93    
Minimum Humidity 71    
Precipitation  
Precipitation 0.00 in - - ()
Sea Level Pressure  
Sea Level Pressure 30.15 in    
Wind  
Wind Speed 1 mph (SSE)    
Max Wind Speed 7 mph    
Max Gust Speed -    
Visibility 10 miles    
Events      
Averages and records for this station are not official NWS values.
T = Trace of Precipitation, MM = Missing Value Source: NWS Daily Summary

Daily Weather History Graph

Daily Weather History Graph

Search for Another Location

Airport or City:

Trip Planner

Search our weather history database for the weather conditions in past years. The results will help you decide how hot, cold, wet, or windy it might be!

Date:

Astronomy

Nov. 09, 2013 Rise Set
Actual Time 6:56 AM PST 4:40 PM PST
Civil Twilight 6:24 AM PST 5:12 PM PST
Nautical Twilight 5:48 AM PST 5:47 PM PST
Astronomical Twilight 5:14 AM PST 6:22 PM PST
Moon 12:33 PM PST (11/9) 11:21 PM PST (11/9)
Length of Visible Light 10h 47m
Length of Day
9h 44m
Waxing Crescent, 45% of the Moon is Illuminated
Nov 9
Waxing Crescent
Nov 9
First Quarter
Nov 17
Full
Nov 25
Last Quarter
Dec 2
New

Hourly Weather History & Observations

Time (PST) Temp. Windchill Dew Point Humidity Pressure Visibility Wind Dir Wind Speed Gust Speed Precip Events Conditions
12:53 AM 41.0 °F - 37.9 °F 89% 30.16 in 10.0 mi Calm Calm - N/A   Clear
1:53 AM 39.9 °F 35.1 °F 37.0 °F 89% 30.16 in 10.0 mi ESE 6.9 mph - N/A   Clear
2:53 AM 39.0 °F - 37.0 °F 93% 30.17 in 10.0 mi Calm Calm - N/A   Clear
3:53 AM 39.9 °F 37.8 °F 36.0 °F 86% 30.16 in 10.0 mi Variable 3.5 mph - N/A   Clear
4:53 AM 39.0 °F - 37.0 °F 93% 30.16 in 10.0 mi Calm Calm - N/A   Clear
5:53 AM 37.9 °F 35.5 °F 36.0 °F 93% 30.16 in 10.0 mi East 3.5 mph - N/A   Clear
6:53 AM 37.9 °F 35.5 °F 35.1 °F 89% 30.16 in 10.0 mi ESE 3.5 mph - N/A   Clear
7:53 AM 39.0 °F - 36.0 °F 89% 30.18 in 10.0 mi Calm Calm - N/A   Partly Cloudy
8:03 AM 39.0 °F - 36.0 °F 89% 30.17 in 10.0 mi Calm Calm - N/A   Partly Cloudy
8:53 AM 41.0 °F - 37.9 °F 89% 30.18 in 10.0 mi Calm Calm - N/A   Partly Cloudy
9:53 AM 43.0 °F - 39.0 °F 86% 30.18 in 10.0 mi Calm Calm - N/A   Scattered Clouds
10:53 AM 45.0 °F - 39.0 °F 80% 30.18 in 10.0 mi Calm Calm - N/A   Mostly Cloudy
11:53 AM 46.9 °F - 41.0 °F 80% 30.16 in 10.0 mi Calm Calm - N/A   Overcast
12:53 PM 46.9 °F - 41.0 °F 80% 30.13 in 10.0 mi Calm Calm - N/A   Mostly Cloudy
1:53 PM 48.9 °F - 41.0 °F 74% 30.13 in 10.0 mi Calm Calm - N/A   Overcast
2:53 PM 50.0 °F - 41.0 °F 71% 30.12 in 10.0 mi Calm Calm - N/A   Overcast
3:53 PM 50.0 °F - 41.0 °F 71% 30.12 in 10.0 mi SW 3.5 mph - N/A   Overcast
4:53 PM 48.9 °F - 41.0 °F 74% 30.12 in 10.0 mi Calm Calm - N/A   Overcast
5:53 PM 48.0 °F - 41.0 °F 77% 30.13 in 10.0 mi Calm Calm - N/A   Overcast
6:53 PM 46.0 °F - 41.0 °F 83% 30.14 in 10.0 mi Calm Calm - N/A   Partly Cloudy
7:53 PM 46.0 °F - 41.0 °F 83% 30.13 in 10.0 mi Calm Calm - N/A   Clear
8:53 PM 43.0 °F 41.3 °F 41.0 °F 93% 30.15 in 10.0 mi WNW 3.5 mph - N/A   Partly Cloudy
9:53 PM 45.0 °F 43.5 °F 41.0 °F 86% 30.15 in 10.0 mi SW 3.5 mph - N/A   Mostly Cloudy
10:53 PM 45.0 °F - 41.0 °F 86% 30.15 in 10.0 mi Calm Calm - N/A   Overcast
11:53 PM 44.1 °F - 41.0 °F 89% 30.14 in 10.0 mi Calm Calm - N/A   Mostly Cloudy